Wetbulb
51.91 52.01 52.33 52.50 52.51 52.62 52.81 53.24 53.13 53.18 53.50 54.03 54.83 55.83 55.76 56.45 56.22 52.47 47.89 51.91 54.46 58.32 58.63 56.07 56.37 56.68 56.59 52.99 51.40 48.10 40.17 36.88 40.96 41.77 43.20 43.20 44.04 45.85 50.13 50.67 55.94 57.19 55.69 58.15 64.62
51.12 51.28 51.45 51.65 51.69 51.64 52.04 52.46 52.57 52.61 53.16 53.48 53.40 55.18 55.57 55.50 50.71 48.43 53.28 57.57 58.40 59.44 54.31 53.44 52.11 54.25 51.13 51.44 51.02 45.66 39.94 39.48 44.82 45.11 43.96 42.82 42.48 42.97 49.70 52.16 54.57 54.64 60.00 63.15 64.16
50.70 50.32 50.66 50.80 51.06 51.08 51.08 51.15 51.49 52.11 52.52 52.66 52.94 53.25 55.10 52.89 45.26 44.90 56.14 57.68 58.33 58.18 54.69 53.77 54.30 52.32 48.38 50.65 49.93 46.64 41.89 43.59 45.57 46.87 44.08 41.94 41.35 42.99 47.65 46.74 50.47 54.62 58.70 61.18 62.46
50.37 50.47 50.28 50.16 50.22 50.58 50.75 50.23 50.49 51.24 52.21 52.65 52.62 52.53 54.11 49.15 34.50 46.57 57.41 57.46 58.41 56.28 53.47 51.44 51.60 48.55 46.48 45.46 49.42 44.88 47.66 47.48 47.66 47.91 45.65 42.11 42.44 41.23 43.32 46.32 46.67 52.64 60.92 61.66 61.55
50.40 50.52 50.55 50.54 50.15 50.56 50.86 50.55 50.10 50.76 51.50 52.13 52.04 51.53 50.35 42.65 42.81 50.56 57.40 55.41 55.75 54.20 50.73 50.06 49.10 48.15 44.08 46.57 48.05 46.02 46.98 48.28 48.12 48.00 46.43 44.97 40.95 41.45 42.31 44.63 51.10 59.38 60.43 60.85 61.38
50.61 50.34 50.35 50.49 50.51 50.59 50.51 50.66 49.78 50.21 50.92 51.69 51.89 51.69 46.44 36.58 48.58 49.99 50.91 52.71 53.66 52.21 49.13 49.62 48.82 49.09 45.62 44.88 44.72 45.13 45.27 45.50 46.31 46.77 46.66 43.66 41.66 41.66 43.51 49.70 53.12 58.35 57.80 59.90 60.77
50.59 50.51 50.56 50.21 50.19 50.43 50.34 50.43 50.12 49.47 50.10 51.13 51.36 48.98 44.35 39.43 47.11 48.36 53.27 51.00 51.63 52.32 48.72 49.23 48.39 45.86 45.26 43.34 45.94 45.03 40.88 43.74 44.86 46.28 44.37 45.44 40.85 40.75 43.84 47.33 54.95 51.49 57.32 57.92 58.94
50.83 50.61 50.42 50.13 50.08 50.22 50.43 50.45 50.09 49.75 49.82 50.80 50.99 47.10 37.73 48.98 47.83 47.78 48.87 50.44 52.55 53.20 51.88 51.57 50.35 45.54 43.80 44.54 43.00 40.84 40.04 37.02 43.31 45.52 45.85 43.83 37.90 43.59 44.68 43.49 43.93 52.11 55.00 57.54 57.98
51.11 50.66 50.69 50.25 49.99 49.85 50.14 50.25 49.70 49.70 49.91 50.01 45.99 42.79 36.57 49.32 43.70 46.87 47.69 47.72 49.96 50.86 51.41 52.20 48.43 42.64 41.60 36.41 34.44 36.47 32.72 34.05 38.19 44.75 43.38 41.67 37.45 43.55 44.08 43.03 42.39 42.49 45.40 51.52 57.33
51.06 50.76 50.77 50.31 49.56 49.65 49.87 49.62 48.56 47.14 46.67 47.36 45.97 38.19 40.22 39.40 44.00 46.21 46.96 48.52 47.79 47.77 47.19 45.09 40.96 36.78 34.42 33.53 26.88 30.92 32.25 34.98 35.25 40.16 41.52 39.49 38.24 42.15 42.85 41.44 42.07 41.32 41.34 43.50 47.39
50.75 50.77 50.36 49.64 49.36 49.47 44.96 39.73 36.61 38.21 39.66 35.53 37.80 38.58 41.16 44.38 46.92 44.26 46.69 45.55 46.69 44.29 37.73 41.20 34.31 30.04 31.13 33.84 36.57 35.60 34.25 33.62 36.58 39.43 38.04 37.80 38.39 40.32 42.85 37.79 41.09 42.02 41.28 41.99 42.24
50.45 50.41 49.66 48.98 48.89 48.68 40.95 36.02 38.27 39.76 32.79 39.92 39.31 40.29 41.67 43.90 39.28 42.34 46.65 39.78 41.02 36.45 39.69 37.38 32.03 34.43 37.37 37.10 35.52 34.60 32.53 32.08 35.44 37.61 37.36 35.38 35.20 39.13 41.25 40.29 38.43 39.97 40.57 41.59 40.49
50.26 49.57 48.79 48.46 47.99 41.05 37.23 38.27 44.27 43.65 33.53 33.25 39.43 36.94 36.63 41.14 38.59 39.23 43.35 39.90 36.63 35.67 36.02 33.86 34.36 37.99 35.86 33.90 32.19 31.82 30.92 31.55 32.28 34.59 35.67 32.59 29.34 34.74 38.01 39.47 38.82 38.39 38.99 41.74 40.05
50.03 49.19 48.05 47.58 39.86 37.45 35.02 41.79 43.63 42.75 18.24 23.59 35.57 37.36 38.71 40.79 36.75 43.72 44.34 39.82 36.17 33.82 35.95 34.01 36.43 36.31 34.11 32.10 33.43 28.34 34.29 32.99 32.12 31.15 26.66 29.55 21.89 30.06 34.63 36.64 36.98 38.99 38.41 37.86 38.69
49.82 48.98 48.29 46.18 36.96 35.03 39.19 41.29 37.69 32.38 3.14 26.24 33.86 43.46 38.53 36.75 37.83 38.90 44.73 40.75 33.40 33.20 33.09 30.99 32.76 33.24 32.61 33.42 34.85 31.68 36.29 33.56 31.96 28.49 26.31 26.52 22.05 27.35 31.21 31.09 34.89 35.78 37.23 36.11 35.70
49.77 49.14 48.74 43.24 38.46 39.03 41.04 36.44 31.89 11.10 2.57 16.61 31.78 33.87 32.66 35.91 37.00 39.62 39.18 40.68 38.52 33.55 33.13 30.98 35.25 35.39 34.83 36.66 36.52 36.24 33.01 31.67 30.17 28.12 21.43 24.97 23.06 23.94 27.37 30.77 33.34 36.22 36.22 35.26 34.26
49.81 49.03 44.44 41.68 34.79 40.09 35.97 29.11 11.81 3.68 17.05 18.14 26.86 31.93 32.13 31.80 34.35 36.28 34.29 32.25 28.38 21.55 20.98 29.32 31.62 34.64 36.56 33.33 35.84 33.22 30.18 22.02 18.65 15.05 17.41 22.52 21.90 25.99 31.11 33.76 34.19 35.28 33.84 33.95 34.15
49.55 46.63 44.09 41.66 38.65 37.17 30.35 18.32 4.08 2.49 4.56 24.17 28.85 30.11 27.91 31.63 32.02 33.47 32.88 30.13 34.16 27.96 24.81 21.26 23.35 30.58 35.64 33.95 31.34 30.16 28.75 22.05 10.25 11.77 18.41 25.53 21.19 25.40 33.17 34.16 33.91 33.93 33.37 33.03 32.10
46.71 39.20 38.74 40.34 38.80 33.35 22.99 6.98 6.93 9.06 25.01 26.24 25.48 20.53 24.41 29.97 30.48 31.05 30.82 29.17 32.21 29.52 22.61 22.81 23.03 32.31 34.40 35.59 35.18 30.84 26.54 29.47 22.67 14.60 19.40 23.18 25.04 31.18 34.33 33.19 32.35 31.59 31.36 30.37 30.27
38.17 36.92 39.49 40.97 35.87 28.72 15.99 12.88 8.33 22.36 28.00 27.27 15.50 22.52 17.81 24.57 25.80 26.44 28.00 31.87 31.87 33.15 32.56 27.71 23.22 30.19 32.89 36.11 35.61 32.08 32.61 24.12 21.63 11.75 11.69 19.63 23.06 23.74 30.19 31.57 31.76 30.02 29.89 29.71 29.78
36.19 32.81 39.68 39.43 33.20 22.20 8.84 3.50 16.59 26.48 28.38 23.51 22.22 17.41 24.40 24.08 26.89 26.77 24.90 29.84 31.68 32.08 33.07 28.51 24.80 27.65 31.68 29.80 27.76 29.62 26.47 26.73 25.67 22.51 15.42 14.52 20.75 31.49 31.46 32.45 32.44 31.20 30.35 29.81 28.74
32.02 25.81 39.57 34.33 19.38 13.31 6.65 17.49 28.30 27.33 28.26 28.07 27.81 26.14 22.92 26.56 26.29 23.14 21.45 27.45 31.71 31.27 28.45 31.24 25.51 23.86 27.04 33.09 34.32 32.27 29.12 28.89 21.92 17.82 20.27 22.34 21.49 33.07 32.82 33.09 33.33 31.94 31.62 29.28 28.53
31.63 32.97 38.82 31.61 11.70 5.57 15.99 23.20 26.58 25.79 26.83 26.95 25.76 29.09 31.60 22.38 19.73 26.60 24.11 31.01 32.57 32.27 30.49 31.53 22.10 18.24 22.80 26.44 29.23 30.31 31.44 31.85 30.28 27.41 20.61 17.97 20.67 32.81 32.16 32.40 32.68 31.37 30.06 29.08 26.96
27.11 20.43 24.66 25.93 23.98 15.91 13.75 14.05 22.15 28.87 27.48 28.10 28.96 31.86 29.59 24.32 26.89 24.78 27.40 31.83 34.23 34.02 35.59 33.14 25.14 18.83 14.71 20.27 24.20 25.31 29.37 29.71 23.71 17.22 23.05 22.78 23.65 28.88 31.34 31.11 32.21 31.92 30.18 28.49 27.07
30.40 18.46 24.49 21.04 19.09 18.76 22.11 21.96 16.24 18.33 26.89 30.29 27.18 27.51 27.60 21.16 25.13 24.92 28.26 29.77 31.99 33.00 31.66 27.08 18.93 23.26 23.20 23.79 25.31 22.25 26.11 28.77 26.97 25.34 18.34 22.88 25.11 29.32 30.48 28.88 30.20 32.43 30.37 28.09 26.73
29.26 24.57 30.87 26.41 26.06 21.94 22.06 20.31 20.88 18.75 25.40 24.78 22.66 26.66 26.21 23.38 25.49 22.90 27.77 28.19 27.88 30.01 28.80 27.64 17.16 19.41 17.33 22.16 24.74 21.75 25.08 25.65 22.03 22.16 21.46 22.94 23.38 30.73 31.10 30.57 29.59 31.59 30.37 28.68 27.83
27.83 28.93 28.69 28.26 23.78 19.37 19.37 25.47 25.25 26.24 28.78 28.70 28.22 26.00 24.05 25.00 27.00 27.27 28.45 27.87 27.10 26.72 26.06 22.43 14.76 12.46 8.43 15.89 16.50 13.34 20.12 25.34 25.99 26.29 23.17 19.16 25.74 27.69 29.27 30.88 31.40 31.95 30.71 30.01 29.03
MSLP
1018.94 1018.81 1018.48 1018.21 1018.06 1017.71 1017.37 1017.04 1016.73 1016.54 1016.30 1016.05 1015.86 1015.50 1015.06 1015.06 1015.02 1015.23 1014.82 1014.49 1014.27 1014.22 1014.55 1015.12 1015.03 1015.03 1014.68 1015.03 1015.12 1015.16 1015.86 1015.03 1014.05 1013.59 1012.66 1011.82 1011.66 1011.15 1010.93 1011.82 1012.54 1013.00 1012.85 1013.24 1013.66
1018.91 1018.79 1018.59 1018.30 1018.10 1017.72 1017.28 1016.91 1016.60 1016.29 1016.04 1015.80 1015.76 1015.36 1014.80 1014.84 1014.94 1014.40 1013.99 1013.67 1013.73 1013.62 1014.03 1014.34 1015.02 1014.98 1015.20 1014.89 1015.61 1015.82 1016.12 1014.82 1013.83 1013.36 1012.97 1012.30 1012.00 1011.86 1011.70 1013.05 1013.11 1013.26 1013.18 1013.63 1013.90
1018.90 1018.72 1018.56 1018.29 1018.02 1017.65 1017.27 1016.87 1016.52 1016.17 1015.80 1015.60 1015.26 1015.31 1014.78 1014.81 1014.68 1012.92 1012.39 1012.67 1012.98 1013.31 1013.86 1013.91 1014.17 1014.18 1014.86 1014.61 1015.34 1015.73 1015.92 1014.63 1014.04 1013.75 1013.58 1012.83 1012.36 1012.17 1011.96 1012.99 1012.65 1012.70 1013.28 1013.73 1014.07
1018.75 1018.65 1018.48 1018.25 1017.97 1017.63 1017.25 1016.85 1016.37 1015.94 1015.47 1015.28 1015.15 1014.72 1014.87 1014.72 1013.83 1011.75 1011.46 1011.61 1012.35 1012.98 1013.68 1013.70 1014.43 1014.17 1014.39 1014.43 1015.09 1015.56 1015.54 1015.33 1014.29 1014.15 1013.77 1013.46 1012.97 1012.15 1012.39 1012.17 1012.31 1012.73 1013.18 1013.27 1013.83
1018.66 1018.61 1018.45 1018.18 1017.87 1017.53 1017.05 1016.69 1016.25 1015.73 1015.25 1014.88 1014.94 1014.86 1014.01 1014.08 1012.51 1011.37 1011.38 1011.33 1011.88 1012.76 1013.38 1013.74 1013.82 1013.91 1013.90 1014.34 1015.09 1015.47 1015.43 1015.75 1014.89 1014.63 1014.17 1013.43 1013.28 1012.79 1012.26 1012.17 1012.35 1012.97 1013.40 1013.58 1013.99
1018.53 1018.58 1018.35 1018.04 1017.71 1017.35 1016.89 1016.47 1016.05 1015.61 1015.03 1014.50 1014.24 1014.21 1014.06 1013.24 1011.62 1011.37 1011.51 1011.68 1011.98 1012.59 1013.13 1013.34 1013.50 1013.72 1014.15 1014.79 1015.06 1015.90 1016.00 1016.00 1015.50 1014.96 1014.60 1013.79 1013.45 1013.17 1012.52 1012.56 1012.83 1013.24 1013.56 1013.73 1014.03
1018.32 1018.34 1018.08 1017.84 1017.50 1017.16 1016.65 1016.19 1015.79 1015.32 1014.90 1014.48 1013.97 1014.47 1013.50 1012.39 1011.57 1011.55 1011.33 1011.65 1011.98 1012.45 1012.77 1013.30 1013.67 1013.84 1014.23 1015.04 1015.12 1015.72 1016.45 1016.33 1015.98 1015.67 1014.85 1013.81 1013.98 1013.26 1012.60 1012.63 1013.12 1013.41 1013.73 1014.20 1014.42
1017.97 1017.98 1017.81 1017.57 1017.30 1016.87 1016.33 1015.92 1015.47 1015.00 1014.61 1014.40 1014.32 1014.57 1013.43 1011.72 1011.62 1011.70 1011.59 1011.63 1011.95 1012.21 1012.82 1013.27 1013.59 1013.75 1014.38 1014.84 1015.52 1016.27 1017.15 1016.55 1015.94 1015.84 1015.15 1014.75 1014.46 1013.33 1012.85 1012.73 1013.28 1013.84 1014.20 1014.29 1014.48
1017.64 1017.66 1017.43 1017.28 1016.99 1016.48 1016.02 1015.49 1015.13 1014.58 1014.23 1014.16 1014.27 1014.34 1013.26 1011.85 1011.74 1011.73 1011.89 1011.74 1011.95 1012.30 1012.87 1013.19 1013.85 1014.15 1014.61 1015.11 1016.36 1017.11 1017.59 1017.43 1016.61 1016.20 1015.87 1015.74 1015.06 1013.87 1013.19 1013.15 1013.54 1013.99 1014.33 1014.30 1014.64
1017.31 1017.29 1017.11 1017.05 1016.73 1016.25 1015.78 1015.24 1014.48 1014.61 1014.37 1014.26 1014.19 1014.88 1013.53 1012.10 1011.44 1011.69 1011.81 1011.68 1012.03 1012.41 1012.93 1013.47 1014.12 1014.24 1014.55 1015.11 1015.99 1017.13 1017.35 1017.60 1017.22 1017.02 1016.56 1016.26 1015.55 1014.72 1013.89 1013.56 1013.63 1014.04 1014.36 1014.86 1014.83
1016.94 1016.92 1016.89 1016.82 1016.59 1016.15 1016.08 1015.46 1015.47 1015.05 1014.62 1014.66 1014.27 1013.72 1012.64 1012.18 1011.43 1011.96 1011.95 1011.90 1012.40 1012.76 1013.03 1013.57 1013.92 1014.16 1015.01 1015.34 1015.54 1016.53 1017.62 1017.78 1017.52 1017.51 1017.26 1016.91 1016.25 1015.09 1014.27 1013.95 1014.08 1014.13 1014.60 1014.81 1015.04
1016.66 1016.68 1016.70 1016.68 1016.46 1016.22 1016.47 1016.62 1016.51 1016.86 1015.84 1014.69 1014.31 1013.74 1013.42 1013.13 1012.28 1012.28 1012.19 1012.63 1012.93 1013.36 1013.61 1014.28 1014.14 1014.62 1015.13 1015.33 1015.75 1016.35 1017.47 1017.87 1017.55 1017.39 1017.81 1017.54 1016.79 1015.33 1014.51 1014.00 1013.91 1014.02 1014.76 1015.14 1015.55
1016.34 1016.51 1016.65 1016.60 1016.46 1016.62 1016.79 1016.65 1016.25 1016.67 1016.26 1015.25 1014.48 1014.43 1014.33 1013.75 1012.75 1012.52 1012.64 1012.88 1013.33 1013.66 1014.10 1014.09 1014.14 1014.41 1014.87 1015.27 1016.00 1016.24 1016.90 1017.32 1017.40 1017.95 1018.18 1017.69 1016.53 1015.70 1014.95 1014.15 1014.40 1014.69 1015.17 1015.75 1016.61
1016.11 1016.33 1016.56 1016.59 1016.92 1016.94 1016.81 1016.58 1016.34 1016.66 1016.87 1015.85 1014.63 1014.59 1014.14 1013.51 1013.20 1012.49 1012.72 1013.22 1013.57 1014.26 1014.49 1014.66 1014.33 1014.53 1014.85 1015.28 1015.69 1016.11 1016.57 1016.97 1017.39 1018.02 1018.60 1018.54 1017.53 1015.73 1015.34 1014.84 1014.75 1015.21 1016.07 1017.07 1017.83
1015.79 1016.16 1016.45 1016.54 1017.03 1017.00 1016.96 1016.54 1016.47 1016.89 1017.51 1016.51 1015.47 1015.00 1014.66 1014.42 1013.72 1013.26 1013.02 1013.44 1013.70 1014.19 1014.73 1015.05 1014.72 1014.80 1014.86 1015.04 1015.64 1016.08 1016.60 1017.07 1017.53 1018.11 1018.58 1018.90 1018.53 1016.36 1015.92 1015.82 1015.60 1016.47 1017.57 1018.44 1019.31
1015.51 1016.01 1016.51 1016.91 1017.15 1016.93 1016.59 1016.60 1016.97 1018.91 1018.70 1017.13 1016.04 1015.27 1015.05 1014.54 1013.85 1013.63 1013.45 1013.58 1013.95 1014.44 1014.94 1015.29 1014.96 1015.06 1014.85 1015.03 1015.17 1015.52 1016.92 1017.37 1017.89 1018.55 1019.27 1018.60 1018.55 1017.08 1016.98 1017.07 1017.26 1018.24 1019.01 1019.50 1020.32
1015.29 1015.94 1016.73 1017.03 1017.50 1017.05 1016.90 1017.57 1018.67 1020.17 1020.13 1018.63 1017.07 1016.09 1015.61 1015.32 1014.43 1014.18 1014.13 1014.24 1014.57 1015.24 1015.70 1015.74 1015.60 1014.99 1014.71 1015.17 1015.35 1015.68 1016.81 1018.31 1019.27 1019.70 1019.64 1019.03 1019.04 1017.80 1017.99 1018.55 1018.88 1019.05 1020.08 1020.54 1021.46
1015.37 1016.25 1017.26 1017.67 1017.55 1017.16 1017.94 1019.35 1021.04 1021.95 1020.84 1019.27 1018.02 1017.18 1016.56 1015.96 1014.95 1014.49 1014.90 1015.21 1015.44 1015.48 1016.17 1016.38 1016.60 1015.54 1014.82 1014.86 1015.12 1015.97 1016.48 1017.55 1018.92 1020.52 1020.32 1019.80 1018.99 1018.39 1018.94 1019.26 1019.51 1019.95 1020.63 1021.17 1022.08
1015.64 1016.94 1017.74 1018.05 1017.68 1017.66 1019.41 1021.28 1022.67 1022.05 1020.87 1019.97 1018.45 1017.78 1017.11 1016.24 1015.79 1015.13 1015.61 1015.81 1015.81 1015.53 1016.06 1016.45 1016.38 1015.97 1015.32 1015.19 1015.67 1016.56 1017.29 1017.97 1019.09 1021.49 1020.65 1019.48 1018.96 1019.10 1019.60 1020.03 1020.57 1021.13 1021.51 1021.95 1022.86
1016.23 1017.47 1018.42 1018.37 1017.99 1018.74 1020.86 1022.82 1022.99 1022.00 1020.81 1019.86 1019.51 1019.10 1018.23 1017.49 1016.61 1016.06 1016.01 1016.57 1016.22 1015.86 1015.69 1016.34 1016.79 1016.66 1016.23 1016.28 1016.85 1016.29 1017.32 1018.52 1019.44 1020.84 1020.47 1019.58 1019.13 1019.43 1020.05 1020.63 1021.28 1021.88 1022.36 1022.94 1023.45
1016.75 1018.29 1018.80 1018.53 1018.48 1020.31 1022.88 1023.72 1022.87 1021.70 1021.11 1020.44 1019.85 1019.28 1018.85 1018.17 1017.55 1017.21 1017.48 1017.53 1017.00 1016.60 1016.10 1016.50 1016.88 1017.68 1017.07 1017.47 1017.28 1017.27 1017.88 1018.80 1018.97 1019.85 1020.10 1020.01 1019.71 1019.87 1020.10 1020.84 1021.30 1022.05 1022.57 1023.03 1023.59
1017.96 1019.26 1019.27 1018.85 1020.42 1022.99 1023.82 1023.49 1022.53 1021.55 1020.90 1020.37 1020.00 1019.68 1019.27 1018.73 1018.37 1018.17 1018.17 1018.13 1017.78 1017.51 1016.94 1016.82 1017.45 1018.42 1018.78 1018.71 1018.51 1018.18 1018.32 1018.66 1019.20 1020.31 1020.44 1020.23 1020.40 1019.92 1020.15 1021.09 1021.29 1022.01 1022.60 1023.14 1023.77
1019.31 1019.97 1019.55 1019.63 1021.70 1023.67 1024.05 1023.42 1022.49 1021.65 1020.86 1020.31 1019.98 1019.59 1019.18 1019.13 1019.05 1018.69 1018.59 1018.58 1018.15 1017.72 1017.54 1017.28 1018.42 1019.61 1020.03 1019.87 1019.17 1018.95 1019.10 1019.09 1019.45 1019.95 1020.73 1020.85 1020.63 1020.09 1020.35 1020.95 1021.47 1021.98 1022.81 1023.39 1024.08
1019.76 1020.72 1020.92 1021.34 1022.30 1022.98 1023.65 1023.40 1022.56 1021.52 1020.83 1020.35 1019.78 1019.36 1019.11 1019.14 1018.94 1018.90 1018.77 1018.83 1018.48 1018.23 1018.10 1017.89 1019.44 1020.14 1020.86 1020.48 1020.15 1020.07 1019.91 1019.94 1020.24 1021.33 1021.42 1021.22 1020.84 1020.81 1020.63 1021.02 1021.27 1021.86 1022.69 1023.68 1024.43
1020.08 1021.25 1021.50 1022.01 1022.51 1022.94 1022.92 1022.86 1022.44 1021.74 1020.98 1020.36 1019.69 1019.45 1019.14 1019.28 1019.42 1019.28 1019.18 1019.23 1019.11 1019.05 1018.96 1019.34 1021.02 1021.75 1022.09 1021.74 1021.08 1020.88 1020.82 1021.02 1021.37 1021.74 1021.88 1021.77 1021.26 1020.47 1020.71 1021.09 1020.99 1021.15 1022.27 1023.53 1024.17
1020.43 1021.08 1021.52 1022.02 1022.17 1022.45 1022.56 1022.53 1022.21 1021.75 1021.23 1020.65 1020.38 1020.00 1019.51 1019.77 1019.95 1019.76 1019.42 1019.82 1019.92 1019.89 1020.33 1020.91 1022.76 1023.28 1023.95 1023.27 1022.51 1022.21 1021.83 1021.66 1021.88 1022.16 1022.29 1022.12 1021.70 1020.64 1020.48 1020.41 1021.02 1021.65 1022.34 1022.97 1023.57
1020.55 1020.58 1020.73 1021.88 1022.23 1022.54 1022.59 1022.24 1022.01 1021.69 1021.33 1021.09 1020.82 1020.54 1020.32 1020.75 1020.54 1020.40 1020.35 1020.63 1020.86 1021.13 1021.85 1022.52 1023.86 1025.13 1026.30 1025.37 1024.17 1023.54 1022.23 1021.83 1021.81 1021.83 1022.02 1022.25 1021.62 1021.35 1021.03 1021.06 1021.30 1021.66 1022.19 1022.64 1023.21
Wind_Speed
13 14 14 13 14 15 16 17 17 17 18 16 18 21 17 16 13 5 14 8 9 11 7 6 6 3 2 3 3 5 1 6 5 6 5 2 2 4 4 4 3 2 3 1 17
14 14 14 14 15 16 17 16 17 17 18 17 16 22 19 14 5 11 7 17 17 10 6 8 10 10 4 5 3 4 3 8 3 0 3 3 2 2 4 4 4 0 5 13 16
12 13 13 14 14 15 17 18 19 19 18 17 16 18 18 7 5 8 21 26 18 13 5 1 3 9 6 4 5 5 4 4 2 4 3 3 1 2 6 4 7 6 12 16 16
12 13 14 14 13 15 16 17 19 20 20 18 16 14 23 5 10 3 6 16 21 8 7 6 6 6 6 9 9 10 6 9 2 5 3 3 8 1 2 4 1 5 16 15 17
12 13 14 14 14 16 17 16 18 20 20 19 14 9 10 7 9 5 0 5 15 9 11 7 7 6 6 9 9 7 4 7 10 7 4 1 4 2 3 2 3 11 14 14 13
13 13 14 14 15 16 16 16 18 19 20 17 14 14 9 16 4 6 5 5 6 10 7 6 6 4 5 5 8 4 1 5 8 10 7 2 3 3 2 2 7 9 8 14 16
12 13 14 14 15 16 16 17 16 20 19 15 11 7 8 13 1 5 4 4 7 11 7 4 3 3 6 7 8 7 3 7 8 6 6 2 5 7 4 5 6 8 7 7 9
13 13 14 13 15 16 17 17 17 20 17 15 9 5 6 6 4 6 1 3 5 8 8 8 4 1 4 3 5 6 4 3 7 2 5 5 6 10 5 5 4 3 3 7 6
14 14 14 13 14 17 18 18 18 18 14 11 1 6 7 7 4 4 4 5 4 5 8 8 6 3 4 7 5 3 3 3 0 3 4 3 3 3 1 6 5 5 5 6 5
14 15 15 12 13 16 16 20 14 6 6 3 2 3 5 3 4 5 4 3 3 3 7 6 4 4 3 4 8 6 4 3 2 3 1 4 9 8 4 4 7 4 4 6 6
13 13 12 8 11 13 7 5 7 1 4 2 10 4 3 9 3 1 2 5 4 2 4 6 5 10 5 4 9 12 4 3 5 3 2 5 10 11 6 1 4 6 6 6 7
11 11 9 7 9 8 3 3 3 3 6 5 11 3 7 9 2 3 3 5 4 4 3 5 6 7 9 6 7 7 5 4 4 7 3 1 11 16 7 4 4 5 6 6 1
9 7 5 5 5 4 1 3 2 5 4 6 1 3 7 6 1 6 6 2 6 4 3 8 4 9 8 6 7 1 8 6 3 5 4 6 4 9 4 4 4 2 2 4 4
9 5 3 0 3 2 4 5 3 4 5 10 4 4 6 11 0 2 4 2 2 6 4 3 1 10 9 7 6 5 5 5 8 6 1 1 4 4 5 6 4 6 2 7 8
9 4 3 4 3 2 3 4 2 5 5 13 5 1 5 5 1 1 5 4 5 5 4 1 4 7 6 5 6 4 6 5 4 5 3 5 2 5 2 4 4 7 7 8 7
9 7 11 3 2 3 5 4 5 9 3 9 4 3 4 4 6 3 4 3 3 5 5 1 1 5 6 4 8 9 5 5 4 3 3 6 5 5 3 3 5 3 5 7 7
11 11 5 2 1 4 4 6 8 7 5 10 5 6 2 4 1 3 5 4 5 6 1 3 4 4 2 8 2 3 15 2 2 2 4 1 2 5 4 4 3 3 6 8 6
15 12 7 3 4 3 5 8 9 3 5 5 3 4 4 1 3 5 7 5 3 3 5 4 3 3 0 4 7 3 4 5 7 3 4 1 5 3 3 4 6 8 8 9 8
17 3 4 5 6 4 7 7 8 6 3 5 6 5 5 3 3 4 3 5 2 2 7 5 2 2 2 4 5 4 3 2 7 1 2 4 3 4 3 5 6 5 6 6 5
4 4 3 7 4 6 7 1 2 3 5 3 2 2 3 6 5 4 3 3 1 4 1 3 5 2 2 5 1 5 7 2 3 3 2 1 1 2 4 4 3 3 4 3 3
5 5 4 6 4 7 4 6 4 4 2 3 2 3 2 2 3 4 1 3 4 4 5 4 4 0 2 5 1 3 2 4 5 3 3 3 2 1 2 5 4 4 4 3 3
4 4 4 4 6 3 2 3 3 4 3 1 1 2 2 2 2 2 2 2 4 3 2 2 4 4 3 3 3 1 3 3 4 3 1 2 2 2 2 3 4 4 4 3 3
3 2 3 4 4 2 5 2 2 3 3 3 2 3 1 2 2 2 2 3 4 3 2 2 2 4 4 3 3 3 2 3 5 3 2 4 3 2 3 1 3 5 4 2 3
4 2 4 5 2 6 3 2 3 2 3 4 3 2 2 1 2 3 2 4 4 2 9 5 4 4 5 2 3 4 3 3 5 4 3 3 1 4 6 6 3 3 4 5 4
4 2 2 0 2 2 2 4 2 4 3 2 3 3 2 2 2 1 3 2 5 7 4 5 5 3 5 4 3 2 6 5 3 3 5 4 4 5 4 2 4 3 6 6 6
4 4 2 1 0 3 6 2 1 4 2 2 2 5 2 3 1 2 4 3 1 5 4 4 2 2 6 8 7 3 3 6 3 2 2 3 4 4 4 3 2 4 6 6 6
1 2 3 3 2 4 2 2 1 2 1 4 3 2 11 6 5 3 9 9 7 3 3 3 5 3 2 5 5 5 5 4 2 3 6 4 7 4 5 7 5 6 5 7 6
Wind_Direction
340 338 334 328 326 327 324 320 318 316 311 324 329 284 270 265 272 242 237 233 205 223 140 153 172 220 80 99 53 15 151 213 195 172 239 154 194 355 18 341 68 256 139 260 137
334 337 333 331 329 325 324 322 317 314 309 299 310 316 270 262 244 240 233 232 233 239 167 170 174 169 174 133 108 135 231 194 205 239 276 325 158 174 121 196 229 270 53 139 145
333 335 332 332 328 330 329 325 320 315 311 302 299 310 277 259 261 240 218 229 224 225 188 167 209 157 194 137 168 154 200 224 113 52 1 303 296 171 133 190 222 187 158 157 155
329 327 327 325 326 326 327 326 318 313 314 298 286 303 298 206 227 229 211 218 208 186 176 173 201 194 185 177 191 198 206 294 46 7 338 346 312 87 255 159 322 187 170 154 162
320 317 315 318 317 316 319 325 319 317 317 302 299 293 285 214 232 264 256 312 185 167 181 176 178 186 156 182 142 206 145 273 336 332 309 52 265 242 190 339 72 129 163 165 165
316 314 314 312 313 312 317 320 319 317 315 305 299 336 277 232 222 271 267 94 148 159 173 154 189 213 128 148 162 118 261 277 308 327 289 98 291 277 113 123 124 150 172 172 173
302 302 308 312 317 308 311 316 316 315 312 312 307 326 242 220 117 356 198 175 176 181 161 182 134 157 141 144 137 115 315 281 258 286 297 65 290 241 153 95 126 188 178 171 177
293 293 303 310 310 308 310 314 312 311 306 302 307 293 267 222 258 324 325 215 153 186 170 193 146 225 170 118 64 125 360 214 232 270 281 105 251 249 200 122 125 169 180 177 189
295 294 292 302 304 309 315 312 310 303 298 302 327 107 264 320 163 224 174 186 154 162 175 167 129 193 101 111 86 10 164 228 342 106 337 142 229 344 263 167 189 203 204 225 191
291 294 298 292 303 314 321 317 312 332 307 249 95 211 259 258 156 165 222 118 128 126 105 116 153 150 117 131 185 153 153 220 175 41 65 301 290 295 312 159 187 210 225 218 242
288 291 309 302 301 318 355 350 2 354 6 306 307 273 327 317 116 138 188 82 94 7 131 160 138 198 126 130 113 117 94 155 97 49 30 341 293 298 304 249 231 208 231 247 241
287 301 310 304 311 344 46 42 189 268 309 270 288 351 337 311 182 151 99 123 147 161 113 138 204 152 147 133 126 123 110 251 111 114 208 205 293 290 293 259 205 203 189 224 163
280 305 303 301 328 40 305 285 291 157 297 314 304 79 268 316 102 169 137 79 123 111 147 144 184 155 152 140 124 67 178 191 148 113 329 348 258 249 279 249 152 244 194 92 150
261 270 265 290 16 319 314 326 326 185 47 318 355 45 351 322 3 114 100 114 91 128 94 140 81 156 148 166 148 122 182 203 135 113 67 305 300 235 213 251 206 198 209 70 62
231 215 219 126 196 359 307 335 335 57 41 319 335 336 345 323 336 245 78 322 131 120 105 39 110 136 153 175 153 146 142 139 116 115 146 166 212 259 145 226 254 61 70 65 60
195 171 132 85 19 286 333 357 53 42 292 330 338 359 29 328 352 95 156 73 134 76 66 100 111 134 177 138 166 135 95 58 67 107 242 191 170 280 113 8 68 69 71 73 65
163 144 92 112 312 342 5 31 32 98 291 324 345 5 45 336 287 148 144 110 129 103 107 62 352 322 126 110 90 122 147 88 53 359 216 339 126 252 24 21 300 205 109 90 61
135 102 65 42 337 31 48 47 63 256 250 320 327 310 330 240 317 120 132 125 360 103 102 140 177 249 323 138 155 148 167 150 168 169 188 155 216 292 47 51 43 60 83 76 66
107 60 54 348 344 57 66 51 194 209 290 330 327 27 12 333 325 81 123 120 182 178 132 131 64 308 72 105 140 169 183 144 105 233 123 180 237 96 90 66 67 65 59 62 57
97 77 48 329 356 59 70 222 188 237 329 4 65 58 30 321 344 39 52 360 58 34 59 180 103 10 101 111 310 159 155 91 20 137 192 15 273 119 6 15 142 143 123 113 94
57 76 347 339 50 47 117 229 294 271 291 16 16 336 292 314 3 359 54 38 7 353 52 133 86 10 81 20 94 88 86 47 108 85 144 125 262 156 340 311 215 178 184 156 107
73 63 325 10 55 69 92 202 313 326 339 4 304 252 264 324 334 24 139 43 343 314 82 27 109 93 80 18 342 74 138 128 125 260 29 100 293 337 53 341 125 179 176 157 124
71 37 329 65 99 339 315 326 300 324 320 328 253 224 248 199 58 65 53 357 351 29 106 180 15 92 39 10 11 79 82 107 98 71 191 113 273 4 322 234 186 174 210 197 160
89 58 336 46 152 125 129 324 310 278 279 271 288 269 223 38 355 127 119 39 356 20 46 60 67 128 163 152 131 130 113 72 99 108 158 196 291 239 275 276 273 227 171 190 203
37 248 193 65 337 114 168 149 340 344 287 254 311 335 312 76 63 119 72 86 36 344 53 78 98 56 49 9 65 123 140 136 119 155 131 223 202 248 223 227 260 230 166 184 202
131 128 84 71 197 60 347 336 147 288 324 356 83 357 17 88 357 161 119 53 49 17 62 4 121 102 27 2 29 64 87 108 104 95 40 94 276 302 306 4 52 209 197 211 212
245 30 103 13 61 67 271 350 339 267 83 48 355 64 50 25 29 31 90 81 74 89 108 63 117 62 282 346 7 352 225 175 158 159 140 164 236 336 326 327 348 337 218 218 212